User: anonymous   Login
Location: Shell Point
(30.0571°N, 84.2896°W)
Time: 10:12:06
(UTC-05:00)
Language:

Meteor 2-19 Rocket - Orbit

View from above orbital plane
View from above orbital plane
View from above satellite
View from above satellite

Ground track
Ground track

The orbit data is extracted from the following two-line orbital elements,

1 20671U 90057B   16044.13965832  .00000015  00000-0  51159-6 0  9992
2 20671  82.5451  41.6380 0013925 252.2688 162.4728 13.84598411295255
Epoch (UTC): 13 February 2016 03:21:06
Eccentricity: 0.0013925
inclination: 82.5451°
perigee height: 937 km
apogee height: 958 km
right ascension of ascending node: 41.6380°
argument of perigee: 252.2688°
revolutions per day: 13.84598411
mean anomaly at epoch: 162.4728°
orbit number at epoch: 29525

The dashed part of the orbit path shows where the satellite is in the earth's shadow,  

DLR